[[{"header":{"parameterUnit":"m.s-1","parameterCategory":1,"la1":30.2991,"la2":30.254,"lo1":-89.0895,"lo2":-89.0444,"dy":0.0017,"dx":0.0017,"nx":28,"ny":28,"refTime":"2025-02-09T09:00:00:Z","depth":0,"parameterNumber":2,"parameterNumberName":"U-component_of_WINDS"},"data":[0,0,0,0,0,0,0,0,0,0,0,0,0,0,0,0,0,0,0,0,0,0,0,0,0,0,0,0,0,0,0,0,0,0,0,0,0,0,0,0,0,0,0,0,0,0,0,0,0,0,0,0,0,0,0,0,0,0,-2.7099,-2.71,0,-2.7143,-2.7144,-2.7144,-2.7113,-2.7111,-2.711,-2.7109,-2.7159,-2.7161,-2.7164,0,0,0,0,0,0,0,0,0,0,0,0,0,-2.6995,-2.6997,-2.7099,-2.71,-2.71,-2.7143,-2.7144,-2.7144,-2.7113,-2.7111,-2.711,-2.7108,-2.7158,-2.7161,-2.7164,0,0,0,0,0,0,0,0,0,0,0,0,0,-2.704,-2.6997,-2.7099,-2.709,-2.7089,-2.7143,-2.7144,-2.7144,-2.7113,-2.7111,-2.7109,-2.7107,-2.7157,-2.7161,-2.7164,-2.7231,0,0,-2.7176,-2.7178,0,0,0,0,0,0,0,0,-2.7037,-2.7043,-2.709,-2.709,-2.709,-2.712,-2.7125,-2.7174,-2.7114,-2.7104,-2.7109,-2.7106,-2.7148,-2.7152,-2.7165,-2.7233,-2.7235,-2.7177,-2.7179,-2.7181,-2.7182,0,0,0,0,0,0,0,-2.7034,-2.7041,-2.7117,-2.7091,-2.7091,-2.7085,-2.7089,-2.7134,-2.7138,-2.7105,-2.7103,-2.7108,-2.7147,-2.7162,-2.7166,-2.7236,-2.7177,-2.718,-2.7183,-2.7184,-2.7364,-2.7366,0,0,0,0,0,0,-2.7031,-2.7039,-2.7115,-2.7118,-2.7058,-2.7089,-2.7093,-2.7113,-2.7137,-2.7138,-2.711,-2.7107,-2.7156,-2.7162,-2.7168,-2.7248,-2.7181,-2.7185,-2.7187,-2.7361,-2.7364,-2.7367,0,0,0,0,0,0,-2.7029,-2.7038,-2.7113,-2.7078,-2.7087,-2.7093,-2.7115,-2.7115,-2.7129,-2.7141,-2.7142,-2.7123,-2.7154,-2.7162,-2.7216,-2.725,-2.7186,-2.719,-2.7359,-2.7362,-2.7366,-2.7409,0,0,0,0,0,0,-2.7026,-2.7037,-2.7061,-2.7079,-2.7089,-2.7158,-2.7117,-2.7117,-2.7135,-2.7131,-2.7154,-2.7155,-2.7153,-2.721,-2.722,-2.7254,-2.7193,-2.7356,-2.736,-2.7364,-2.7405,-2.7414,-2.7422,0,0,0,0,0,-2.7022,-2.7072,-2.7062,-2.7072,-2.7118,-2.716,-2.7167,-2.7162,-2.7138,-2.7163,-2.7171,-2.7155,-2.7245,-2.7216,-2.7226,-2.7262,-2.7353,-2.7359,-2.7364,-2.7401,-2.7412,-2.7422,0,0,0,0,0,0,-2.7059,-2.7074,-2.7063,-2.712,-2.7139,-2.7155,-2.7186,-2.7174,-2.7201,-2.7196,-2.7191,-2.7197,-2.7253,-2.7263,-2.723,-2.733,-2.7296,-2.7303,-2.732,-2.7331,-2.7339,-2.7335,-2.7196,0,0,0,0,0,-2.7074,-2.7105,-2.7117,-2.7166,-2.7176,-2.718,-2.7198,-2.7193,-2.7213,-2.7221,-2.7233,-2.7255,-2.7288,-2.731,-2.7342,-2.7407,-2.7412,-2.7437,-2.7446,-2.7453,-2.7459,-2.7497,-2.7508,-2.7385,-2.7385,-2.7384,0,0,-2.7104,-2.7116,-2.7136,-2.7174,-2.7188,-2.7222,-2.7186,-2.7224,-2.725,-2.7227,-2.7278,-2.7288,-2.7312,-2.7372,-2.7399,-2.7383,-2.7495,-2.746,-2.7465,-2.7468,-2.7503,-2.7515,-2.7525,-2.7388,-2.7388,-2.7387,0,0,-2.7177,-2.7189,-2.7231,-2.7247,-2.7269,-2.7271,-2.7282,-2.73,-2.7305,-2.7356,-2.7341,-2.7373,-2.743,-2.7448,-2.7465,-2.7549,-2.7536,-2.756,-2.7604,-2.764,-2.765,-2.7658,-2.7689,-2.77,-2.7567,-2.7567,-2.7567,0,-2.7212,-2.7261,-2.7255,-2.7294,-2.7312,-2.7293,-2.7337,-2.7353,-2.7385,-2.7399,-2.738,-2.7452,-2.7467,-2.7532,-2.7553,-2.7567,-2.758,-2.7556,-2.7648,-2.7657,-2.7665,-2.7694,-2.7706,-2.7569,-2.7569,-2.7569,-2.7569,0,-2.7305,-2.7339,-2.7372,-2.7402,-2.7424,-2.7465,-2.7467,-2.7491,-2.7485,-2.7491,-2.7544,-2.7562,-2.7597,-2.7613,-2.7608,-2.7678,-2.7667,-2.7649,-2.7614,-2.768,-2.7707,-2.7718,-2.7573,-2.7572,-2.7572,-2.7571,0,0,-2.7399,-2.7427,-2.7439,-2.7453,-2.7477,-2.7505,-2.7548,-2.7581,-2.7602,-2.7626,-2.7662,-2.7712,-2.7696,-2.7715,-2.7713,-2.7745,-2.7811,-2.7723,-2.7723,-2.7739,-2.7892,-2.7905,-2.7918,-2.7803,-2.7805,-2.7807,-2.789,0,-2.7473,-2.7545,-2.7542,-2.761,-2.7643,-2.7627,-2.7664,-2.7685,-2.7692,-2.7723,-2.7732,-2.7768,-2.7743,-2.7755,-2.7786,-2.7797,-2.7842,-2.7791,-2.7839,-2.784,-2.7832,-2.7932,-2.7945,-2.8022,-2.79,-2.7902,-2.7903,0,-2.7569,-2.7595,-2.7665,-2.7687,-2.7701,-2.7734,-2.7765,-2.7795,-2.7819,-2.7822,-2.7845,-2.7838,-2.7884,-2.785,-2.7914,-2.7879,-2.7899,-2.7908,-2.7911,-2.7914,-2.7875,-2.7938,-2.8046,-2.8058,-2.792,-2.7919,-2.7918,0,-2.7631,-2.7684,-2.7734,-2.7746,-2.7772,-2.7796,-2.7809,-2.7831,-2.7852,-2.7881,-2.7895,-2.7929,-2.7948,-2.7976,-2.798,-2.7954,-2.8045,-2.801,-2.805,-2.805,-2.8069,-2.8067,-2.8182,-2.8083,-2.8083,-2.8083,-2.8082,0,-2.7714,-2.7757,-2.7762,-2.7792,-2.7842,-2.784,-2.7891,-2.7901,-2.7921,-2.7955,-2.7945,-2.7978,-2.7981,-2.8015,-2.8019,-2.8072,-2.8081,-2.8086,-2.8087,-2.8087,-2.8086,-2.8099,-2.8094,-2.8086,-2.8085,-2.8084,-2.8084,0,-2.779,-2.7795,-2.7848,-2.7869,-2.7876,-2.7911,-2.793,-2.7961,-2.7968,-2.8011,-2.8022,-2.8034,-2.8074,-2.8081,-2.8128,-2.8131,-2.8195,-2.819,-2.8186,-2.8185,-2.8225,-2.8221,-2.8351,-2.8368,-2.8258,-2.8259,-2.826,0,-2.7842,-2.7876,-2.79,-2.7922,-2.7935,-2.797,-2.7992,-2.7993,-2.8016,-2.8048,-2.8075,-2.8114,-2.8145,-2.821,-2.8225,-2.8262,-2.8258,-2.8301,-2.8263,-2.8263,-2.8259,-2.8256,-2.826,-2.8308,-2.8309,-2.831,-2.8311,0,-2.7934,-2.7935,-2.7966,-2.7998,-2.8024,-2.805,-2.8075,-2.8094,-2.8098,-2.8126,-2.8166,-2.819,-2.8239,-2.8279,-2.8316,-2.8332,-2.8323,-2.8323,-2.8334,-2.8334,-2.833,-2.8333,-2.8205,-2.8319,-2.8318,-2.8318,-2.8317,-2.8317,-2.8,-2.803,-2.8052,-2.8087,-2.8106,-2.813,-2.816,-2.8171,-2.8204,-2.8243,-2.8243,-2.8288,-2.8314,-2.8363,-2.8381,-2.8418,-2.8405,-2.8421,-2.8425,-2.8429,-2.8432,-2.8325,-2.8425,-2.8425,-2.8425,-2.8425,-2.8424,0,-2.8091,-2.8105,-2.8138,-2.8173,-2.8201,-2.819,-2.8218,-2.8243,-2.8282,-2.8306,-2.8337,-2.8385,-2.8425,-2.8443,-2.8482,-2.8508,-2.8505,-2.8519,-2.8516,-2.852,-2.8442,-2.8428,-2.852,-2.852,-2.852,-2.852,-2.852,-2.852,-2.8142,-2.8192,-2.8196,-2.8257,-2.8271,-2.8314,-2.8331,-2.8354,-2.8374,-2.8427,-2.8459,-2.847,-2.8494,-2.8535,-2.8571,-2.8576,-2.8591,-2.8606,-2.8609,-2.8535,-2.8526,-2.8516,-2.8503,-2.8609,-2.861,-2.8684,-2.8685,-2.8685]},{"header":{"parameterUnit":"m.s-1","parameterCategory":1,"la1":30.2991,"la2":30.254,"lo1":-89.0895,"lo2":-89.0444,"dy":0.0017,"dx":0.0017,"nx":28,"ny":28,"refTime":"2025-02-09T09:00:00:Z","depth":0,"parameterNumber":3,"parameterNumberName":"V-component_of_WINDS"},"data":[0,0,0,0,0,0,0,0,0,0,0,0,0,0,0,0,0,0,0,0,0,0,0,0,0,0,0,0,0,0,0,0,0,0,0,0,0,0,0,0,0,0,0,0,0,0,0,0,0,0,0,0,0,0,0,0,0,0,1.8762,1.8763,0,1.8838,1.8839,1.884,1.8907,1.8907,1.8908,1.8909,1.8986,1.8987,1.8989,0,0,0,0,0,0,0,0,0,0,0,0,0,1.8674,1.8675,1.8762,1.8763,1.8764,1.8838,1.8839,1.884,1.8907,1.8907,1.8908,1.8909,1.8985,1.8987,1.8989,0,0,0,0,0,0,0,0,0,0,0,0,0,1.8727,1.8676,1.8762,1.8806,1.8811,1.8838,1.8839,1.884,1.8906,1.8908,1.8909,1.891,1.8985,1.8987,1.8989,1.8978,0,0,1.8995,1.8996,0,0,0,0,0,0,0,0,1.8724,1.873,1.8798,1.8803,1.8808,1.8864,1.8836,1.8886,1.8906,1.887,1.8909,1.891,1.8944,1.895,1.8961,1.8981,1.8985,1.8995,1.8996,1.8997,1.8998,0,0,0,0,0,0,0,1.872,1.8728,1.8792,1.8799,1.8805,1.8822,1.8831,1.8846,1.89,1.8873,1.8878,1.8886,1.8947,1.8959,1.8964,1.8986,1.8995,1.8997,1.8998,1.8999,1.9001,1.9,0,0,0,0,0,0,1.871,1.8724,1.879,1.8794,1.8768,1.8823,1.8833,1.8845,1.89,1.8909,1.8885,1.8889,1.8955,1.8961,1.8967,1.8958,1.8997,1.8999,1.9,1.9003,1.9001,1.9,0,0,0,0,0,0,1.8708,1.8715,1.8786,1.8761,1.8771,1.8823,1.8836,1.8846,1.8858,1.8909,1.8919,1.8888,1.8957,1.8964,1.8975,1.8961,1.9,1.9002,1.9004,1.9002,1.9001,1.8939,0,0,0,0,0,0,1.8705,1.8714,1.871,1.876,1.8772,1.8793,1.8835,1.8846,1.8861,1.8867,1.8914,1.8923,1.8958,1.8971,1.8977,1.8965,1.9003,1.9005,1.9003,1.9001,1.8942,1.8935,1.8929,0,0,0,0,0,1.8702,1.869,1.871,1.8717,1.8768,1.8792,1.8799,1.884,1.886,1.8857,1.889,1.8921,1.8962,1.8972,1.8979,1.8967,1.9006,1.9004,1.9001,1.8945,1.8937,1.893,0,0,0,0,0,0,1.8636,1.8697,1.872,1.8723,1.8752,1.8803,1.88,1.883,1.8853,1.8857,1.8908,1.8918,1.8923,1.8946,1.8956,1.8959,1.8989,1.8987,1.8944,1.8936,1.893,1.8923,1.9005,0,0,0,0,0,1.8622,1.8637,1.8689,1.8687,1.87,1.8748,1.8759,1.8789,1.8821,1.8833,1.8867,1.8896,1.8916,1.8927,1.8948,1.8947,1.8958,1.8942,1.8935,1.893,1.8928,1.8929,1.8922,1.8992,1.8992,1.8992,0,0,1.8593,1.8628,1.8634,1.8675,1.87,1.8714,1.8757,1.877,1.878,1.8835,1.8847,1.8873,1.8909,1.8914,1.8917,1.8933,1.8911,1.8926,1.8922,1.8923,1.8926,1.8919,1.8913,1.899,1.899,1.8991,0,0,1.8548,1.8576,1.8577,1.8603,1.8641,1.8673,1.8673,1.8721,1.874,1.8753,1.8794,1.8808,1.884,1.8865,1.8881,1.8846,1.8876,1.8851,1.8817,1.8817,1.8812,1.8807,1.8795,1.8789,1.8849,1.8849,1.8849,0,1.8507,1.8529,1.8574,1.8585,1.8601,1.8652,1.8654,1.8676,1.8719,1.873,1.8747,1.879,1.8818,1.8829,1.882,1.8832,1.8834,1.8846,1.8809,1.8805,1.8801,1.879,1.8785,1.8846,1.8846,1.8847,1.8847,0,1.8477,1.8492,1.8489,1.853,1.8546,1.8552,1.8598,1.861,1.8638,1.8668,1.8681,1.8717,1.8746,1.8751,1.8778,1.8766,1.8775,1.88,1.883,1.8791,1.8781,1.8777,1.8841,1.8842,1.8843,1.8844,0,0,1.8391,1.8458,1.8456,1.8475,1.8522,1.8535,1.8543,1.8572,1.8581,1.8609,1.8618,1.8645,1.8669,1.8687,1.8718,1.8719,1.8689,1.8744,1.8746,1.8732,1.8677,1.8658,1.8652,1.8709,1.8709,1.8708,1.8674,0,1.8353,1.8371,1.8413,1.8418,1.8432,1.8481,1.8489,1.8518,1.8547,1.8564,1.8595,1.8613,1.8644,1.8655,1.8658,1.8692,1.8678,1.8695,1.8717,1.8717,1.8706,1.8647,1.8626,1.8592,1.8671,1.867,1.867,0,1.831,1.8336,1.8343,1.839,1.8397,1.8403,1.8434,1.8449,1.8484,1.8504,1.8526,1.856,1.8572,1.86,1.8617,1.8628,1.864,1.8657,1.8657,1.866,1.869,1.8648,1.8582,1.8577,1.8664,1.8664,1.8665,0,1.8246,1.8283,1.8292,1.8307,1.8362,1.8365,1.8388,1.8424,1.8439,1.8466,1.8476,1.8503,1.8518,1.8538,1.8579,1.8596,1.8592,1.8624,1.8609,1.8608,1.8605,1.8605,1.854,1.8614,1.8614,1.8614,1.8614,0,1.8199,1.8201,1.8264,1.827,1.8274,1.8322,1.8324,1.8352,1.8384,1.8396,1.844,1.845,1.8504,1.852,1.8552,1.8561,1.8568,1.8585,1.8593,1.8581,1.8578,1.8588,1.8592,1.8613,1.8613,1.8613,1.8613,0,1.8128,1.817,1.8183,1.8235,1.8248,1.8248,1.8292,1.8299,1.8331,1.8345,1.8352,1.8401,1.8423,1.8466,1.8499,1.8521,1.8523,1.8538,1.8511,1.8516,1.8499,1.85,1.8439,1.8433,1.851,1.8509,1.8508,0,1.8094,1.8097,1.8149,1.816,1.8182,1.8199,1.8215,1.8263,1.8277,1.8317,1.832,1.8345,1.8368,1.84,1.8439,1.8465,1.8481,1.8457,1.8485,1.8472,1.848,1.8479,1.848,1.8451,1.845,1.8449,1.8448,0,1.8031,1.8052,1.8073,1.8101,1.8119,1.8144,1.8171,1.8177,1.8231,1.8245,1.8268,1.8286,1.832,1.8345,1.8377,1.8401,1.8433,1.8439,1.8437,1.8424,1.8408,1.8417,1.8494,1.844,1.8441,1.8442,1.8442,1.8442,1.7978,1.7983,1.802,1.8042,1.8068,1.8092,1.8101,1.8135,1.8155,1.8187,1.8214,1.8234,1.827,1.8316,1.8338,1.8355,1.837,1.8368,1.8367,1.8365,1.836,1.8406,1.8361,1.8361,1.8361,1.8361,1.8362,0,1.7916,1.7943,1.7963,1.7999,1.8017,1.8047,1.8078,1.8091,1.8108,1.8139,1.8161,1.8187,1.8211,1.8252,1.828,1.8286,1.8301,1.8291,1.8291,1.8296,1.8344,1.8343,1.8278,1.8278,1.8278,1.8278,1.8278,1.8278,1.7886,1.7896,1.7922,1.7945,1.7972,1.7993,1.8008,1.8031,1.8056,1.8083,1.8104,1.8131,1.8166,1.8196,1.822,1.8232,1.824,1.8225,1.8241,1.8285,1.8293,1.83,1.8299,1.8226,1.8226,1.8191,1.8191,1.8191]}]]